sat.trackr.live / text

‹ back to catalog

STARLINK-32336

NORAD 61004 · 2024-158Q

PAYLOAD ACTIVE UNKNOWN

§ Identity

Operator
Country
US
Launch date
2024-09-05
Launch site
AFETR
Launch vehicle
Mass (kg)
RCS (m²)

Purposes: comms

External: N2YO · Heavens-Above · Gunter

§ Orbital elements

Epoch: 2026-05-25T04:32:20.688576Z

Period
94.11 min
Inclination
53.1614°
Eccentricity
0.0001336
Mean motion
15.30194466 rev/d
Perigee alt
474.3 km
Apogee alt
476.1 km
Semi-major
6,853.4 km
B*
2.4407e-5
RAAN
70.2001°
Arg perigee
94.3606°
Mean anomaly
265.7547°
Rev number
9,736

§ Raw data

STARLINK-323361 61004U 24158Q   26145.18912834  .00000364  00000+0  24407-4 0  99982 61004  53.1614  70.2001 0001336  94.3606 265.7547 15.30194466 97364

JSON: /api/v1/satellites/61004 · /tle

For live sub-satellite position, see the globe view (requires WebGL).

§ Visibility from observer

Set your observer location to see the next 7 days of passes ≥ 10°. The values pass through the URL so the page stays shareable.

No JS? Fill the form by hand. The geolocation button needs JavaScript.